Location: Barrio La Floresta Pearson
(41.4431°N, 2.0706°E)
Time: 01:59:24
(UTC+00:00)

Daily predictions for brighter satellites

Satellite Brightness Start Highest point End
(mag) Time Altitude Azimuth Time Altitude Azimuth Time Altitude Azimuth
Cosmos 1943 Rocket 3.0 04:06:38 44° NE 04:06:38 44° NE 04:10:30 10° NNE
Cosmos 2082 Rocket 4.2 04:15:38 16° S 04:15:38 16° S 04:16:48 10° S
CENTAUR R/B 2.6 04:16:08 63° N 04:16:08 63° N 04:22:03 10° NNE
Cosmos 2297 4.1 04:21:07 54° NNE 04:21:07 54° NNE 04:25:30 10° NNE
NOSS 3-2 (A) 4.0 04:27:50 41° N 04:27:50 41° N 04:32:26 10° NNE
NOSS 3-2 (C) 3.1 04:33:35 77° WNW 04:33:42 78° NW 04:40:00 10° NNE
Envisat 3.7 04:32:23 10° NNE 04:37:21 52° E 04:42:16 10° S
Cosmos 2098 Rocket 4.3 04:36:50 10° SSE 04:40:17 38° E 04:44:32 10° NNE
Meteor 2-3 Rocket 3.6 04:34:58 10° SSW 04:40:37 80° W 04:46:22 10° N
Cosmos 968 Rocket 3.3 04:42:38 52° SSW 04:43:55 85° WNW 04:49:04 10° NNE
Genesis I 3.5 04:49:24 66° NE 04:49:32 66° NE 04:53:34 10° SE
Cosmos 921 Rocket 3.4 04:50:35 35° N 04:52:16 63° ENE 04:56:41 10° SSE
Meteor 1-26 Rocket 4.2 04:53:51 17° NNW 04:58:35 75° W 05:04:18 10° S
Cosmos 1812 3.2 04:56:57 27° N 04:58:50 58° E 05:02:36 10° SSE
Gbstr 26 Del rocket 3.5 05:01:04 40° SSW 05:01:04 40° SSW 05:04:36 10° SSE
USA 238 DEB 3.8 05:00:10 41° W 05:01:52 49° NW 05:08:29 10° NNE
USA 238 3.8 05:00:14 40° W 05:01:57 50° NW 05:08:35 10° NNE
Cosmos 1570 Rocket 4.3 05:02:26 45° WSW 05:02:26 45° WSW 05:07:18 10° S
Cosmos 1766 Rocket 3.9 05:00:41 10° S 05:04:57 62° E 05:09:14 10° NNE
Cosmos 2344 4.0 05:03:34 33° WNW 05:05:02 36° NW 05:12:12 10° NNE
Cosmos 2263 4.4 04:59:57 10° SSW 05:05:35 74° ESE 05:11:19 10° NNE
Cosmos 1151 Rocket 3.4 05:01:35 11° N 05:05:43 65° E 05:10:03 10° SSE
USA 215 3.5 05:02:18 10° ESE 05:08:46 66° NE 05:13:03 23° NW
Cosmos 2034 Rocket 4.5 05:09:03 35° W 05:09:03 35° W 05:14:38 10° SSW
Cosmos 1782 3.1 05:15:55 44° WSW 05:15:55 44° WSW 05:19:18 10° SSW
Meteor 1-31 Rocket 2.6 05:11:49 10° N 05:15:43 82° WNW 05:19:37 10° SSW
BREEZE-M DEB (TANK) 4.3 04:58:26 10° SW 05:16:14 67° SSE 05:20:32 10° ENE
Cosmos 2279 Rocket 4.1 05:10:14 10° N 05:16:27 78° E 05:22:38 10° S
Cosmos 1328 Rocket 4.0 05:14:02 10° N 05:18:24 62° E 05:22:41 10° SSE
Cosmos 2369 Rocket 2.1 05:13:53 10° SW 05:19:25 63° WNW 05:24:59 10° NNE
SJ-12 4.0 05:17:06 10° N 05:21:07 51° WNW 05:25:07 10° SSW
Cosmos 1862 3.1 05:17:18 10° S 05:21:15 87° W 05:25:13 10° N
COSMO-SKYMED 1 2.5 05:18:15 10° S 05:22:33 65° W 05:25:48 17° NNW
H-2A R/B 3.1 05:25:36 10° N 05:29:03 37° WNW 05:32:32 10° SW
Cosmos 1634 Rocket 4.1 05:25:24 10° NNW 05:31:27 51° W 05:37:25 10° SSW
Cosmos 1867 4.4 05:30:58 26° W 05:32:29 30° WSW 05:37:09 10° S
Cosmos 836 Rocket 4.4 05:27:51 12° NNW 05:32:40 77° WSW 05:37:51 10° SSE
CZ-4B R/B 3.4 05:34:58 10° NNE 05:38:28 53° E 05:41:58 10° S
CZ-4B R/B 4.2 05:36:38 10° ESE 05:38:46 16° ENE 05:40:55 10° NNE
MOS 1-B Rocket 4.4 05:32:44 10° SSW 05:38:47 40° W 05:44:13 10° NNW
Cosmos 1408 Rocket 3.8 05:36:03 10° S 05:40:20 71° E 05:44:37 10° NNE
Cosmos 1656 Rocket 3.6 05:37:49 10° SW 05:43:06 55° WNW 05:48:28 10° NNE
Cosmos 1503 Rocket 3.9 05:38:16 10° SSW 05:43:30 73° WNW 05:48:51 10° NNE
CZ-4C R/B 2.7 05:40:29 10° S 05:43:35 59° W 05:46:01 15° NNW
DMSP B5D2-2 4.2 05:38:44 10° SSE 05:43:56 76° ENE 05:49:09 10° N
CZ-2C R/B 3.1 05:42:46 10° SSW 05:47:57 42° W 05:53:05 10° NNW
Cosmos 1943 Rocket 3.5 05:48:15 18° WNW 05:49:11 19° NW 05:53:07 10° N
Cosmos 1777 Rocket 4.5 05:50:08 10° S 05:55:16 65° ESE 06:00:28 10° NNE
SL-8 R/B 4.0 05:54:22 16° NW 05:58:04 61° NNE 06:02:48 10° ESE
Cosmos 1515 Rocket 3.5 05:54:20 10° N 05:58:43 88° W 06:03:03 10° S
Meteor 2-15 4.4 05:54:04 10° NNW 06:00:06 74° W 06:06:07 10° S
Cosmos 2180 Rocket 4.5 05:55:39 10° NNW 06:01:43 61° W 06:07:43 10° S
Meteor 1-27 Rocket 3.9 05:56:09 10° N 06:01:48 77° E 06:07:33 10° SSE
SJ 16-02 1.7 06:00:32 10° S 06:04:52 70° ESE 06:09:15 10° NNE
Cosmos 773 Rocket 4.1 06:00:51 10° NNW 06:06:07 82° ENE 06:11:17 10° SSE
CENTAUR R/B 3.9 06:03:21 13° WNW 06:07:09 21° NNW 06:12:32 10° NNE
NOAA 11 4.3 06:04:47 10° N 06:10:04 51° WNW 06:15:21 10° SW
CZ-3 R/B 4.1 06:05:20 10° SSW 06:10:21 15° S 06:13:29 10° SSE
Meteor 2-19 Rocket 4.4 06:05:14 10° SSW 06:11:15 67° W 06:17:17 10° N
Alouette 2 Rocket 4.0 06:08:18 10° N 06:12:00 52° ENE 06:15:30 10° SSE
Cosmos 1340 Rocket 2.8 06:09:13 10° S 06:13:08 85° E 06:17:08 10° N
NOAA 12 4.0 06:10:01 10° N 06:15:17 71° WNW 06:20:29 10° SSW
Envisat 4.2 06:12:22 10° NNW 06:15:57 20° WNW 06:19:33 10° WSW
Cosmos 1500 Rocket 3.6 06:12:05 10° S 06:16:32 82° W 06:21:02 10° N
SL-27 R/B 2.4 06:15:40 10° NNW 06:19:17 86° WSW 06:22:48 10° SSE
DELTA 2 R/B (1) 3.8 06:15:01 10° WSW 06:20:32 71° S 06:26:04 10° E
Cosmos 1939 Rocket 2.8 06:17:52 10° N 06:21:47 62° WNW 06:25:35 10° SSW
Cosmos 1805 Rocket 3.8 06:23:48 10° S 06:28:11 77° E 06:32:34 10° N
Sich 1 3.7 06:25:49 10° S 06:30:02 61° E 06:34:16 10° NNE
H-2A R/B 2.3 06:26:34 10° S 06:30:41 51° W 06:34:56 10° NNW
Cosmos 2026 Rocket 4.3 06:24:28 10° S 06:30:49 77° E 06:37:07 10° N
Meteor 1-25 Rocket 4.4 06:26:47 10° S 06:32:25 85° E 06:38:02 10° N
EO 1 Delta rocket 4.5 06:25:52 10° N 06:32:29 89° W 06:37:40 10° S
ATLAS 3B R/B 2.7 06:26:35 10° SSW 06:33:04 87° ESE 06:39:54 10° NE
FALCON 9 R/B 4.1 06:17:59 10° W 06:35:48 44° SSW 06:41:15 10° SE
